San Jose del Cabo, Mexico

10:27 PM MDT on August 17, 2017 (GMT -0600)
Los Cabos International

Weather History for MMSD - February, 2013

Change the Weather History Date:

Saturday, February 2, 2013

  Actual Average Record
Temperature  
Mean Temperature 74 °F -  
Max Temperature 87 °F 77 °F 91 °F (2003)
Min Temperature 60 °F 57 °F 48 °F (2007)
Cooling Degree Days 8    
Growing Degree Days 24 (Base 50)    
Moisture  
Dew Point 37 °F    
Average Humidity 31    
Maximum Humidity 69    
Minimum Humidity 11    
Precipitation  
Precipitation 0.00 in - - ()
Sea Level Pressure  
Sea Level Pressure 30.01 in    
Wind  
Wind Speed 9 mph ()    
Max Wind Speed 16 mph    
Max Gust Speed -    
Visibility 15.0 miles    
Events      
Averages and records for this station are not official NWS values.
T = Trace of Precipitation, MM = Missing Value Source: Averaged Metar Reports

Daily Weather History Graph

Daily Weather History Graph

Search for Another Location

Airport or City:

Trip Planner

Search our weather history database for the weather conditions in past years. The results will help you decide how hot, cold, wet, or windy it might be!

Date:

Astronomy

Feb. 02, 2013 Rise Set
Actual Time 6:58 AM MST 6:07 PM MST
Civil Twilight 6:34 AM MST 6:30 PM MST
Nautical Twilight 6:07 AM MST 6:57 PM MST
Astronomical Twilight 5:41 AM MST 7:24 PM MST
Moon No Moon Rise 11:03 AM MST (2/2)
Length of Visible Light 11h 56m
Length of Day
11h 09m
Waning Gibbous, 59% of the Moon is Illuminated
Feb 2
Waning Gibbous
Feb 3
Last Quarter
Feb 10
New
Feb 17
First Quarter
Feb 25
Full

Hourly Weather History & Observations

Time (MST) Temp. Dew Point Humidity Pressure Visibility Wind Dir Wind Speed Gust Speed Precip Events Conditions
6:18 AM 60.8 °F 37.4 °F 42% 30.03 in 15.0 mi WNW 11.5 mph - N/A   Mostly Cloudy
6:48 AM 62.6 °F 37.4 °F 39% 30.04 in 15.0 mi WNW 11.5 mph - N/A   Mostly Cloudy
7:48 AM 66.2 °F 35.6 °F 32% 30.01 in 15.0 mi WNW 11.5 mph - N/A   Mostly Cloudy
8:51 AM 69.8 °F 32.0 °F 25% 30.06 in 15.0 mi NW 11.5 mph - N/A   Mostly Cloudy
9:47 AM 77.0 °F 26.6 °F 16% 30.06 in 15.0 mi NW 11.5 mph - N/A   Mostly Cloudy
10:47 AM 80.6 °F 28.4 °F 15% 30.03 in 15.0 mi NNW 9.2 mph - N/A   Scattered Clouds
11:50 AM 84.2 °F 26.6 °F 12% 30.03 in 15.0 mi North 13.8 mph - N/A   Scattered Clouds
12:52 PM 87.8 °F 28.4 °F 12% 30.00 in 15.0 mi North 13.8 mph - N/A   Mostly Cloudy
1:45 PM 86.0 °F 28.4 °F 12% 29.93 in 15.0 mi North 11.5 mph - N/A   Mostly Cloudy
3:03 PM 86.0 °F 28.4 °F 12% 29.96 in 15.0 mi North 16.1 mph - N/A   Mostly Cloudy
3:49 PM 84.2 °F 24.8 °F 11% 29.97 in 15.0 mi NNW 13.8 mph - N/A   Mostly Cloudy
4:43 PM 82.4 °F 26.6 °F 13% 29.93 in 15.0 mi NNW 13.8 mph - N/A   Mostly Cloudy
5:45 PM 77.0 °F 60.8 °F 57% 29.98 in 15.0 mi NE 9.2 mph - N/A   Mostly Cloudy
6:44 PM 73.4 °F 62.6 °F 69% 30.00 in 15.0 mi North 4.6 mph - N/A   Mostly Cloudy
7:42 PM 69.8 °F 42.8 °F 38% 29.99 in 15.0 mi WNW 8.1 mph - N/A   Mostly Cloudy
8:45 PM 69.8 °F 42.8 °F 38% 30.05 in 15.0 mi West 9.2 mph - N/A   Scattered Clouds
9:42 PM 66.2 °F 44.6 °F 46% 30.03 in 15.0 mi NW 4.6 mph - N/A   Scattered Clouds
10:40 PM 66.2 °F 44.6 °F 46% 30.01 in 15.0 mi North 2.3 mph - N/A   Scattered Clouds
11:42 PM 62.6 °F 44.6 °F 52% 30.03 in 25.0 mi NNW 4.6 mph - N/A   Partly Cloudy